Regional Weather Roundup
Issued by NWS

Home | Current Version | Previous Version | Graphics & Text | Print | Product List | Glossary On
Versions: 1 2 3 4 5 6 7 8 9 10 11 12 13 14 15 16 17 18 19 20 21 22 23 24 25 26 27 28 29 30 31 32 33 34 35 36 37 38 39 40 41 42 43 44 45 46 47 48 49 50
000
ASUS45 KSLC 290810
RWRUT

UTAH REGIONAL WEATHER ROUNDUP
NATIONAL WEATHER SERVICE SALT LAKE CITY UT
100 AM MST SAT NOV 29 2014

UTZ001>011-023>025-290900-

NORTHERN UTAH

CITY           SKY/WX    TMP DP  RH WIND       PRES   REMARKS
BRIGHAM CITY   CLOUDY    53  19  26 S16       29.73F
HILL AFB       MOCLDY    52  17  25 S15       29.75F
LOGAN          CLEAR     54  20  26 SW9       29.72F
OGDEN          MOCLDY    50  19  29 S5        29.74F
PROVO AIRPORT  MOCLDY    46  21  36 E6        29.82F
SALT LAKE CITY MOCLDY    58  13  17 S20G30    29.73F
VERNAL         PTCLDY    29  20  69 CALM      29.89F
WENDOVER       CLEAR     46  14  27 CALM      29.74S
HEBER CITY     MOCLDY    50  14  23 SW14      29.83F THUNDER
WEST JORDAN    CLEAR     54  25  32 S21G28    29.77F

$$

UTZ012>022-026-027-290900-

SOUTHERN/CENTRAL UTAH

CITY           SKY/WX    TMP DP  RH WIND       PRES   REMARKS
BLANDING       PTCLDY    33  16  49 N6        30.09S WCI  28
BRYCE CANYON   PTCLDY    25  10  53 S5        30.04F WCI  19
CEDAR CITY     PTCLDY    43  14  31 SW8       29.95F
DELTA          PTCLDY    44  13  29 S15       29.84F
MILFORD        CLEAR     42  15  33 SW22      29.90F
MOAB/CYNLANDS  CLEAR     26  16  65 W3        29.92F
PRICE          PTCLDY    29  20  69 NE7       29.93F WCI  22
ST GEORGE      PTSUNNY   39  16  38 CALM      29.95S
KANAB          PTCLDY    27   9  46 NE6       30.03F WCI  20

$$

REGIONAL REPORTS     COLORADO/ARIZONA

CITY           SKY/WX    TMP DP  RH WIND       PRES   REMARKS
CRAIG, CO      CLEAR     26  18  71 SE8       29.88F WCI  18
GRAND JUNCTION PTCLDY    26  20  77 SE3       29.93F
RIFLE          CLEAR     27  22  81 CALM      29.96F
MONTROSE       CLEAR     29  17  61 SE12      29.97F WCI  19
CORTEZ         CLEAR     21  14  74 NE5       30.04F WCI  15
PAGE, AZ       MOCLDY    40  19  43 CALM      29.98S
GRAND CANYON   PTCLDY    16   2  54 CALM      30.10S
KINGMAN        CLEAR     45  14  28 S9        29.97F
FLAGSTAFF      PTCLDY    32  15  49 VRB3      30.11F

$$

REGIONAL REPORTS    NEVADA/IDAHO/WYOMING

CITY           SKY/WX    TMP DP  RH WIND       PRES   REMARKS
LAS VEGAS, NV  CLEAR     50  23  34 SW5       29.83F
ELY            CLEAR     40  12  32 S17       29.89F WCI  31
ELKO           PTCLDY    36  18  48 CALM      29.76F
POCATELLO, ID  CLOUDY    48  19  31 SW14      29.68F
BURLEY         CLOUDY    48  19  31 W6        29.65F HAZE
EVANSTON, WY   MOCLDY    41  17  38 SW18      29.79F
ROCK SPRINGS   PTCLDY    40  14  34 SW14      29.75F WCI  32

$$



USA.gov is the U.S. government's official web portal to all federal, state and local government web resources and services.